Location: ?????
(32.9885°N, 35.7043°E)
Time: 16:27:27
(UTC+00:00)

Daily predictions for brighter satellites

Satellite Brightness Start Highest point End
(mag) Time Altitude Azimuth Time Altitude Azimuth Time Altitude Azimuth
CZ-4C R/B 4.0 16:44:43 10° N 16:51:26 33° NE 16:58:52 10° ESE
ISS -3.6 16:53:17 10° SW 16:56:38 79° NW 17:00:00 10° NE
MOS 1-B Rocket 4.3 16:50:43 10° NNE 16:56:59 46° E 17:02:31 10° S
SAR-Lupe-1 4.0 16:55:03 10° NNE 16:58:39 87° E 17:02:13 10° SSW
Okean-O 3.2 16:54:24 10° S 16:58:46 62° W 17:03:10 10° NNW
S3M 4.1 16:52:30 10° S 16:58:51 78° E 17:05:10 10° N
Intercosmos 24 3.6 17:00:07 10° S 17:03:47 73° E 17:07:23 10° N
Delta 2 Rocket 4.3 16:59:34 10° W 17:05:04 66° N 17:10:06 10° ENE
Cosmos 1777 Rocket 4.0 17:00:36 10° S 17:05:43 67° ESE 17:10:53 10° NNE
CSL-04 Debris 4.4 17:05:37 10° S 17:11:01 77° WSW 17:16:26 10° NNW
Ariane Rocket 4.1 17:07:05 10° SE 17:11:18 28° ENE 17:15:32 10° NNE
Cosmos 2278 Rocket 2.2 17:06:19 10° S 17:11:55 70° ESE 17:17:33 10° NNE
ATLAS 5 CENTAUR R/B 2.6 17:07:06 10° NNW 17:13:11 85° WSW 17:20:11 10° SSE
CSL-04 Rocket 3.9 17:11:13 10° S 17:16:30 75° WSW 17:21:53 10° NNW
Cosmos 2315 Rocket 4.2 17:11:15 10° SSE 17:17:25 55° E 17:23:37 10° NNE
COSMOS 2406 4.2 17:14:04 10° N 17:19:01 30° ENE 17:23:11 13° ESE
Meteor 1-26 Rocket 4.2 17:14:08 10° S 17:19:46 78° E 17:25:16 10° N
Cosmos 1437 2.3 17:18:28 10° S 17:21:15 62° E 17:24:02 10° NNE
Cosmos 1271 Rocket 4.4 17:20:19 14° ESE 17:21:53 17° E 17:24:29 10° NE
Cosmos 1242 Rocket 3.9 17:19:05 10° SSW 17:22:28 40° W 17:25:48 10° N
Intercosmos 25 Rocket 3.5 17:18:57 10° NNW 17:22:56 63° W 17:26:03 10° S
Cosmos 1805 Rocket 4.3 17:22:02 10° NNW 17:26:19 56° W 17:30:37 10° S
Cosmos 1633 Rocket 3.4 17:23:50 10° N 17:28:06 47° E 17:31:48 13° SSE
Cosmos 1328 Rocket 3.5 17:24:11 10° S 17:28:33 66° E 17:32:56 10° NNE
Meteor 1-20 Rocket 4.2 17:23:41 10° N 17:29:13 87° W 17:34:40 10° S
Resurs 01 Rocket 3.1 17:29:48 15° ESE 17:31:56 21° ENE 17:35:17 10° NNE
X-37B 1.0 17:29:22 10° WNW 17:32:29 53° SW 17:34:23 21° SSE
GPS 2-04 Rocket1 2.9 17:32:36 10° WNW 17:36:46 71° NNE 17:39:45 18° E
Mugunghwa Rocket 4.3 17:30:54 10° WSW 17:36:55 49° S 17:41:27 18° ESE
Cosmos 1602 3.6 17:34:15 10° N 17:38:09 80° E 17:41:36 13° S
Meteor 2-17 Rocket 4.4 17:32:24 10° N 17:38:33 74° E 17:44:39 10° SSE
Centaur D-1AR AC-36 3.0 17:39:04 10° SW 17:41:58 18° S 17:42:46 16° SSE
Cosmos 1666 4.3 17:39:46 10° NNE 17:42:18 17° ENE 17:42:39 17° E
USA 306 4.1 17:38:33 10° NNW 17:42:20 30° NE 17:44:42 18° E
Cosmos 1812 2.7 17:42:03 13° S 17:45:23 58° E 17:49:11 10° NNE
Cosmos 1833 Rocket 3.0 17:40:13 10° N 17:45:43 51° ENE 17:49:08 22° SE
Cosmos 1470 Rocket 4.1 17:42:11 10° N 17:46:27 41° E 17:48:35 25° SE
USA 267 3.3 17:43:09 18° SE 17:48:09 83° NE 17:54:44 10° NW
Tianhe-1 3.3 17:46:26 10° WNW 17:49:03 24° NNW 17:51:41 10° NE
IGS 5A 4.4 17:51:41 26° ESE 17:52:53 30° ENE 17:56:30 10° NNE
SJ 16-02 1.6 17:49:51 10° SSW 17:54:14 70° WNW 17:58:40 10° N
Meteor 1-14 Rocket 4.2 17:49:11 10° N 17:54:54 66° E 17:58:41 21° SSE
CZ-2C R/B 1.1 17:54:30 10° WSW 17:58:29 60° SSE 17:59:56 34° E
Cosmos 1933 Rocket 4.2 17:56:02 10° NNE 18:00:03 36° E 18:01:03 32° ESE
Cosmos 1666 Rocket 4.3 17:57:41 10° NNW 18:01:54 50° W 18:05:53 11° SSW
CREW DRAGON DEMO-1 DEB 3.3 17:59:46 10° NNW 18:02:11 39° NE 18:02:11 39° NE
IRS-1A Rocket 4.4 17:59:58 16° S 18:04:38 82° WSW 18:10:33 10° NNW
Akebono 4.2 18:04:02 10° NNW 18:05:59 68° N 18:05:59 68° N
Landsat 7 4.3 18:06:11 33° ESE 18:07:38 42° ENE 18:12:07 10° N
CZ-2C R/B 3.8 18:04:25 10° NNE 18:08:54 52° E 18:10:35 34° SSE
Resurs 1-3 3.7 18:06:24 24° S 18:08:58 76° WSW 18:13:22 10° NNW
USA 307 3.3 18:07:27 10° NNW 18:11:37 51° NE 18:12:46 39° E
Cosmos 1500 3.2 18:09:34 10° N 18:13:17 72° W 18:14:37 37° S
SPOT 1/Viking Rocket 4.2 18:15:54 33° E 18:17:05 37° ENE 18:21:49 10° N
Meteor 1-5 Rocket 4.0 18:12:14 10° N 18:17:32 73° E 18:19:42 36° SSE
Cosmos 2297 3.7 18:13:42 19° S 18:17:47 58° ESE 18:23:22 10° NNE
Cosmos 1937 Rocket 4.0 18:18:00 36° ESE 18:18:02 36° E 18:22:43 10° NE
ARIANE 5 R/B 4.1 18:18:15 21° ENE 18:18:15 21° ENE 18:21:19 10° NNE
SWARM C 4.5 18:15:47 10° N 18:18:54 70° ENE 18:18:54 70° ENE
SWARM A 4.1 18:15:53 10° N 18:19:05 74° ENE 18:19:05 74° ENE
OBJECT-B 3.5 18:18:16 10° SW 18:20:27 17° W 18:22:40 10° NW
USA 308 2.9 18:21:17 10° NW 18:25:33 69° NE 18:26:09 59° E
Cosmos 1538 Rocket 4.0 18:22:19 10° NNW 18:27:39 79° WSW 18:29:38 39° S
Nadezhda 1 Rocket 4.0 18:30:20 39° SSE 18:32:34 61° E 18:38:42 10° NNE
SPOT 3 Rocket 3.4 18:32:01 44° SSE 18:33:41 88° WSW 18:38:51 10° NNW
ISS -0.1 18:33:21 10° NW 18:33:56 10° NNW 18:34:29 10° NNW
Cosmos 1943 Rocket 2.1 18:33:15 45° SSE 18:34:41 60° ESE 18:40:12 10° NNE
OAO 3 Rocket 3.3 18:30:15 10° W 18:34:53 67° N 18:36:13 44° ENE
Meteor 1-11 Rocket 4.0 18:29:16 10° N 18:35:04 54° E 18:36:11 47° ESE
Cosmos 2154 Rocket 4.3 18:31:35 10° N 18:37:37 46° E 18:38:39 43° ESE
Cosmos 2082 Rocket 2.1 18:33:02 10° NNW 18:38:40 73° ENE 18:39:53 54° SE
CZ-4C R/B 3.5 18:32:44 10° NW 18:40:23 57° WSW 18:45:02 28° S
Cosmos 1680 Rocket 4.1 18:36:27 10° N 18:41:28 41° ENE 18:41:44 40° ENE
Cosmos 2074 Rocket 3.9 18:35:19 10° N 18:41:38 81° E 18:43:41 46° SSE
Cosmos 1461 3.2 18:39:31 22° SSW 18:42:30 79° WNW 18:47:11 10° NNE
Cosmos 2184 Rocket 3.8 18:37:42 10° N 18:43:54 81° E 18:45:42 49° SSE
Delta 2 Rocket 3.6 18:42:36 10° WNW 18:47:51 78° NNE 18:48:18 70° ENE
NOSS 3-4 (A) 3.9 18:41:55 10° NNW 18:49:16 86° ENE 18:51:58 46° SSE
NOSS 3-4 (C) 3.9 18:42:02 10° NNW 18:49:22 85° ENE 18:52:04 46° SE
Iridium 4 Rocket 4.0 18:49:04 36° SSW 18:51:31 71° W 18:57:26 10° N
Milstar 3 3.9 18:36:06 10° W 18:53:23 71° S 18:57:56 37° ESE
Cosmos 1607 4.5 18:54:47 41° E 18:54:47 41° E 18:59:46 10° NE
Cosmos 44 4.0 18:50:11 10° NNW 18:55:19 44° ENE 18:55:23 44° ENE
Cosmos 2369 Rocket 2.9 19:01:04 39° ENE 19:01:04 39° ENE 19:04:59 10° NNE
ATLAS 2AS CENTAUR R/B 2.8 18:55:25 10° NNW 19:02:29 59° ENE 19:03:41 52° E
USA 305 3.9 18:58:29 10° NW 19:01:47 40° W 19:01:47 40° W
Cosmos 2228 Rocket 4.1 19:03:10 38° WSW 19:04:02 42° W 19:08:18 10° N
Cosmos 1610 Rocket 4.3 18:59:53 10° N 19:06:02 80° E 19:06:41 71° SE
Cosmos 1898 Rocket 4.3 19:03:38 23° SW 19:06:42 49° WNW 19:11:52 10° N
Resurs 01 Rocket 3.2 19:07:21 25° WSW 19:08:13 27° W 19:12:00 10° NW
Cosmos 1536 4.0 19:06:02 10° N 19:08:42 40° N 19:08:42 40° N
Cosmos 1869 Rocket 4.1 19:05:54 10° N 19:09:22 55° NNW 19:09:22 55° NNW
Cosmos 158 Rocket 4.5 19:05:39 10° NNW 19:10:22 47° WSW 19:10:38 47° WSW
Terra 2.9 19:16:34 35° NE 19:16:34 35° NE 19:19:48 10° N
Cosmos 1295 Rocket 4.3 19:11:58 10° N 19:18:21 87° E 19:18:47 79° SSE
Cosmos 972 Rocket 4.5 19:12:19 10° NNW 19:19:02 74° WSW 19:19:44 67° SSW
Cosmos 923 Rocket 4.3 19:14:48 10° NNW 19:19:54 60° W 19:19:54 60° W
Tianhe-1 4.4 19:24:06 10° NW 19:24:48 13° NNW 19:24:48 13° NNW
SL-24 R/B - RUBIN 2 4.4 19:21:16 10° NNW 19:25:17 54° NNW 19:25:17 54° NNW
Cosmos 1818 4.1 19:22:23 10° NNW 19:27:02 50° NNE 19:27:02 50° NNE
Cosmos 2341 Rocket 4.0 19:35:38 10° N 19:41:32 74° NNE 19:41:32 74° NNE
ERS-1 Rocket 3.9 19:49:16 44° NW 19:49:16 44° NW 19:53:01 10° NNW
SPOT 5 3.9 19:51:32 46° WNW 19:51:32 46° WNW 19:55:39 10° NNW
SL-8 Rocket 4.2 19:51:48 10° N 19:57:09 65° N 19:57:09 65° N
Gbstr 26 Del rocket 4.4 20:04:40 10° NW 20:10:53 61° N 20:10:53 61° N
Lacrosse 5 4.2 20:23:02 17° NNE 20:23:02 17° NNE 20:24:14 10° NE
Cosmos 2369 Rocket 4.3 20:42:46 19° WNW 20:43:50 20° WNW 20:47:51 10° NNW
ATLAS 2AS CENTAUR R/B 4.5 20:47:47 10° WNW 20:51:07 19° W 20:51:07 19° W
Cosmos 2227 Rocket 4.4 21:37:12 10° NNE 21:40:42 17° ENE 21:40:46 17° ENE
Cosmos 2297 Rocket 4.2 21:38:29 10° N 21:42:06 22° NE 21:42:06 22° NE
COSMOS 2455 4.3 21:37:48 10° N 21:42:04 32° NE 21:42:04 32° NE
SeaSat 1 4.4 22:06:54 10° NNE 22:09:01 26° NNE 22:09:01 26° NNE
Resurs 1-4 Rocket 4.2 22:13:16 10° NE 22:15:27 19° ENE 22:15:27 19° ENE
CZ-2D R/B 4.1 22:19:18 10° NE 22:21:51 22° ENE 22:21:51 22° ENE
Cosmos 2219 4.4 22:28:09 10° N 22:31:59 39° NNE 22:31:59 39° NNE
Lacrosse 4 Rocket 4.0 22:42:11 20° NNE 22:42:11 20° NNE 22:43:35 10° NNE
Cosmos 1697 Rocket 3.7 22:52:02 41° N 22:52:02 41° N 22:55:43 10° NNE
Cosmos 1802 Rocket 4.4 22:50:37 10° N 22:55:34 58° NNE 22:55:34 58° NNE
Cosmos 1980 Rocket 2.9 23:05:54 51° NNE 23:05:54 51° NNE 23:10:06 10° NNE
Cosmos 407 Rocket 4.3 23:12:13 10° N 23:16:31 50° NNE 23:16:31 50° NNE
Cosmos 2227 Rocket 3.5 23:19:35 10° NNW 23:22:33 31° NW 23:22:33 31° NW
SL-08 R/B 4.5 23:19:49 10° N 23:25:54 82° N 23:25:54 82° N
Cosmos 2297 Rocket 3.9 23:21:46 10° NW 23:23:53 22° NW 23:23:53 22° NW
Meteor 2-5 Rocket 4.1 23:28:14 59° E 23:28:14 59° E 23:33:26 10° NNE
Cosmos 2278 4.0 23:34:52 59° NNW 23:34:52 59° NNW 23:39:47 10° NNE
SL-16 R/B 2.4 23:34:51 89° WSW 23:34:51 89° WSW 23:41:08 10° NNW
ADEOS II 2.4 23:30:52 10° NNE 23:35:37 60° ENE 23:35:37 60° ENE
Atlas Centaur 2 3.1 23:38:34 55° SSE 23:38:34 55° SSE 23:45:40 10° E
ADEOS Rocket 4.4 23:32:38 13° SE 23:38:51 46° ENE 23:46:10 10° N
NOSS 3-2 (A) 3.6 23:42:25 53° ESE 23:42:25 53° ESE 23:48:01 10° NE
Cosmos 1725 Rocket 4.1 23:36:43 10° NNW 23:42:14 60° WNW 23:42:14 60° WNW
Cosmos 2082 3.8 23:37:50 10° NNW 23:42:46 67° NNW 23:42:46 67° NNW
SL-16 R/B 2.9 23:44:33 42° ESE 23:45:03 43° ESE 23:50:23 10° NE
Cosmos 2233 Rocket 3.8 23:40:58 10° N 23:47:10 86° E 23:47:41 76° SSE
Cosmos 1452 Rocket 3.8 23:47:23 58° E 23:47:23 58° E 23:52:30 10° NNE
SEDSat Delta rocket 4.3 23:52:29 43° SE 23:52:29 43° SE 23:56:33 10° E
USA 281 3.1 23:51:32 68° WSW 23:51:42 68° WSW 23:58:15 10° NNW
